Clarksdale Fletcher Field Air, MS

8:34 PM CDT on August 20, 2017 (GMT -0500)
Fletcher

Weather History for KCKM - March, 2014

Change the Weather History Date:

Sunday, March 23, 2014

  Actual Average (KUOX) Record (KUOX)
Temperature  
Mean Temperature 46 °F -  
Max Temperature 51 °F 65 °F 84 °F (1935)
Min Temperature 39 °F 38 °F 19 °F (1968)
Degree Days  
Heating Degree Days 19    
Moisture  
Dew Point 38 °F    
Average Humidity 76    
Maximum Humidity 100    
Minimum Humidity 47    
Precipitation  
Precipitation 0.39 in - - ()
Sea Level Pressure  
Sea Level Pressure 30.25 in    
Wind  
Wind Speed 19 mph (North)    
Max Wind Speed 25 mph    
Max Gust Speed 31 mph    
Visibility 8 miles    
Events      
Averages and records for this station are not official NWS values.
T = Trace of Precipitation, MM = Missing Value Source: NWS Daily Summary

Daily Weather History Graph

Daily Weather History Graph

Search for Another Location

Airport or City:

Trip Planner

Search our weather history database for the weather conditions in past years. The results will help you decide how hot, cold, wet, or windy it might be!

Date:

Astronomy

Mar. 23, 2014 Rise Set
Actual Time 7:01 AM CDT 7:16 PM CDT
Civil Twilight 6:36 AM CDT 7:41 PM CDT
Nautical Twilight 6:07 AM CDT 8:10 PM CDT
Astronomical Twilight 5:37 AM CDT 8:40 PM CDT
Moon 1:20 AM CDT (3/23) 11:55 AM CDT (3/23)
Length of Visible Light 13h 04m
Length of Day
12h 14m
Waning Gibbous, 54% of the Moon is Illuminated
Mar 23
Waning Gibbous
Mar 23
Last Quarter
Mar 30
New
Apr 7
First Quarter
Apr 15
Full

Hourly Weather History & Observations

Time (CDT) Temp. Windchill Dew Point Humidity Pressure Visibility Wind Dir Wind Speed Gust Speed Precip Events Conditions
12:15 AM 50.0 °F - 41.0 °F 71% 30.09 in 6.0 mi North 20.7 mph - N/A   Unknown
12:35 AM 46.4 °F 38.7 °F 44.6 °F 93% 30.13 in 2.5 mi North 20.7 mph 26.5 mph 0.08 in   Unknown
12:55 AM 46.4 °F 39.0 °F 46.4 °F 100% 30.11 in 3.0 mi North 19.6 mph 25.3 mph 0.16 in   Unknown
1:15 AM 46.4 °F 40.4 °F 46.4 °F 100% 30.09 in 2.5 mi NNE 13.8 mph - 0.06 in   Unknown
1:35 AM 46.4 °F 38.5 °F 46.4 °F 100% 30.13 in 9.0 mi North 21.9 mph 26.5 mph 0.10 in   Unknown
1:55 AM 46.4 °F 39.8 °F 44.6 °F 93% 30.14 in 9.0 mi North 16.1 mph 24.2 mph 0.10 in   Unknown
2:15 AM 46.4 °F 40.4 °F 44.6 °F 93% 30.13 in 3.0 mi North 13.8 mph 21.9 mph 0.02 in   Unknown
2:35 AM 46.4 °F 39.2 °F 44.6 °F 93% 30.15 in 5.0 mi North 18.4 mph 23.0 mph 0.02 in   Unknown
2:55 AM 44.6 °F 36.1 °F 42.8 °F 93% 30.15 in 8.0 mi North 21.9 mph 26.5 mph 0.02 in   Unknown
3:15 AM 44.6 °F 36.4 °F 42.8 °F 93% 30.18 in 5.0 mi North 20.7 mph 26.5 mph 0.01 in   Unknown
3:35 AM 44.6 °F 37.4 °F 44.6 °F 100% 30.13 in 3.0 mi NNE 16.1 mph 23.0 mph 0.05 in   Unknown
3:55 AM 44.6 °F 37.8 °F 44.6 °F 100% 30.14 in 5.0 mi North 15.0 mph - 0.07 in   Unknown
4:15 AM 44.6 °F 36.6 °F 44.6 °F 100% 30.16 in 7.0 mi North 19.6 mph 24.2 mph N/A   Unknown
4:35 AM 44.6 °F 36.4 °F 42.8 °F 93% 30.17 in 2.5 mi North 20.7 mph 27.6 mph 0.02 in   Unknown
4:55 AM 42.8 °F 34.5 °F 42.8 °F 100% 30.18 in 4.0 mi North 18.4 mph 24.2 mph 0.03 in   Unknown
5:15 AM 42.8 °F 33.8 °F 42.8 °F 100% 30.19 in 5.0 mi North 21.9 mph - N/A   Unknown
5:35 AM 42.8 °F 34.5 °F 41.0 °F 93% 30.20 in 3.0 mi North 18.4 mph 24.2 mph N/A   Unknown
5:55 AM 42.8 °F 34.3 °F 41.0 °F 93% 30.21 in 5.0 mi North 19.6 mph 26.5 mph 0.01 in   Unknown
6:15 AM 41.0 °F 32.2 °F 41.0 °F 100% 30.23 in 6.0 mi North 18.4 mph 26.5 mph N/A   Unknown
6:35 AM 41.0 °F 32.2 °F 41.0 °F 100% 30.23 in 5.0 mi North 18.4 mph - N/A   Unknown
6:55 AM 41.0 °F 31.6 °F 41.0 °F 100% 30.24 in 5.0 mi North 20.7 mph 26.5 mph N/A   Unknown
7:15 AM 41.0 °F 32.2 °F 41.0 °F 100% 30.26 in 5.0 mi North 18.4 mph - N/A   Unknown
7:35 AM 41.0 °F 31.6 °F 39.2 °F 93% 30.26 in 5.0 mi North 20.7 mph - N/A   Unknown
7:55 AM 41.0 °F 30.9 °F 39.2 °F 93% 30.27 in 7.0 mi North 24.2 mph 27.6 mph N/A   Unknown
8:15 AM 41.0 °F 30.9 °F 37.4 °F 87% 30.29 in 9.0 mi North 24.2 mph 29.9 mph N/A   Unknown
8:35 AM 41.0 °F 31.4 °F 37.4 °F 87% 30.29 in 9.0 mi North 21.9 mph 31.1 mph N/A   Unknown
8:55 AM 41.0 °F 31.6 °F 35.6 °F 81% 30.29 in 9.0 mi North 20.7 mph 29.9 mph N/A   Unknown
9:15 AM 42.8 °F 33.5 °F 37.4 °F 81% 30.29 in 9.0 mi North 23.0 mph 26.5 mph N/A   Unknown
9:35 AM 42.8 °F 34.3 °F 37.4 °F 81% 30.30 in 9.0 mi North 19.6 mph 28.8 mph N/A   Unknown
9:55 AM 44.6 °F 36.4 °F 37.4 °F 76% 30.31 in 10.0 mi North 20.7 mph 26.5 mph N/A   Unknown
10:15 AM 44.6 °F 35.9 °F 37.4 °F 76% 30.32 in 10.0 mi North 23.0 mph 27.6 mph N/A   Unknown
10:35 AM 44.6 °F 35.9 °F 37.4 °F 76% 30.32 in 10.0 mi North 23.0 mph 27.6 mph N/A   Unknown
10:55 AM 46.4 °F 39.2 °F 37.4 °F 71% 30.33 in 10.0 mi North 18.4 mph 29.9 mph N/A   Unknown
11:15 AM 46.4 °F 39.0 °F 37.4 °F 71% 30.33 in 10.0 mi North 19.6 mph 27.6 mph N/A   Unknown
11:35 AM 46.4 °F 39.2 °F 37.4 °F 71% 30.33 in 10.0 mi North 18.4 mph 26.5 mph N/A   Unknown
11:55 AM 46.4 °F 39.5 °F 37.4 °F 71% 30.32 in 10.0 mi North 17.3 mph 24.2 mph N/A   Unknown
12:15 PM 48.2 °F - 39.2 °F 71% 30.32 in 10.0 mi North 19.6 mph 25.3 mph N/A   Unknown
12:35 PM 48.2 °F - 39.2 °F 71% 30.32 in 10.0 mi North 15.0 mph 21.9 mph N/A   Unknown
12:55 PM 48.2 °F - 41.0 °F 76% 30.32 in 10.0 mi NNW 15.0 mph 24.2 mph N/A   Unknown
1:15 PM 50.0 °F - 41.0 °F 71% 30.31 in 10.0 mi North 18.4 mph 25.3 mph N/A   Unknown
1:35 PM 50.0 °F - 37.4 °F 62% 30.31 in 10.0 mi North 13.8 mph 24.2 mph N/A   Unknown
1:55 PM 50.0 °F - 39.2 °F 66% 30.30 in 10.0 mi North 19.6 mph 27.6 mph N/A   Unknown
2:15 PM 50.0 °F - 37.4 °F 62% 30.29 in 10.0 mi NNW 18.4 mph 26.5 mph N/A   Unknown
2:35 PM 51.8 °F - 37.4 °F 58% 30.28 in 10.0 mi North 20.7 mph 28.8 mph N/A   Unknown
2:55 PM 51.8 °F - 37.4 °F 58% 30.27 in 10.0 mi North 20.7 mph 29.9 mph N/A   Unknown
3:15 PM 51.8 °F - 33.8 °F 50% 30.26 in 10.0 mi North 23.0 mph 29.9 mph N/A   Unknown
3:35 PM 51.8 °F - 32.0 °F 47% 30.26 in 10.0 mi North 23.0 mph 29.9 mph N/A   Unknown
3:55 PM 51.8 °F - 32.0 °F 47% 30.25 in 10.0 mi North 23.0 mph 29.9 mph N/A   Unknown
4:15 PM 51.8 °F - 32.0 °F 47% 30.25 in 10.0 mi North 25.3 mph 31.1 mph N/A   Unknown
4:35 PM 50.0 °F - 32.0 °F 50% 30.26 in 10.0 mi NNW 18.4 mph 29.9 mph N/A   Unknown
4:55 PM 50.0 °F - 32.0 °F 50% 30.26 in 10.0 mi North 23.0 mph 27.6 mph N/A   Unknown
5:15 PM 50.0 °F - 32.0 °F 50% 30.26 in 10.0 mi North 18.4 mph 27.6 mph N/A   Unknown
5:35 PM 50.0 °F - 32.0 °F 50% 30.26 in 10.0 mi North 24.2 mph 27.6 mph N/A   Unknown
5:55 PM 50.0 °F - 32.0 °F 50% 30.27 in 10.0 mi North 18.4 mph 25.3 mph N/A   Unknown
6:15 PM 50.0 °F - 32.0 °F 50% 30.28 in 10.0 mi North 17.3 mph - N/A   Unknown
6:35 PM 48.2 °F - 32.0 °F 54% 30.29 in 10.0 mi North 15.0 mph 18.4 mph N/A   Unknown
6:55 PM 48.2 °F - 35.6 °F 62% 30.29 in 10.0 mi NNW 10.4 mph - N/A   Unknown
7:15 PM 46.4 °F 41.1 °F 35.6 °F 66% 30.29 in 10.0 mi North 11.5 mph - N/A   Unknown
7:35 PM 46.4 °F 42.9 °F 33.8 °F 62% 30.30 in 10.0 mi NNW 6.9 mph - N/A   Unknown
7:55 PM 44.6 °F 39.2 °F 35.6 °F 71% 30.29 in 10.0 mi North 10.4 mph - N/A   Unknown
8:15 PM 44.6 °F 38.4 °F 33.8 °F 66% 30.30 in 10.0 mi North 12.7 mph - N/A   Unknown
8:35 PM 44.6 °F 37.8 °F 32.0 °F 61% 30.30 in 10.0 mi North 15.0 mph - N/A   Unknown
8:55 PM 42.8 °F 35.8 °F 32.0 °F 66% 30.30 in 10.0 mi North 13.8 mph - N/A   Unknown
9:15 PM 42.8 °F 36.2 °F 32.0 °F 66% 30.30 in 10.0 mi North 12.7 mph - N/A   Unknown
9:35 PM 41.0 °F 34.3 °F 32.0 °F 70% 30.30 in 10.0 mi North 11.5 mph - N/A   Unknown
9:55 PM 41.0 °F 33.9 °F 32.0 °F 70% 30.31 in 10.0 mi North 12.7 mph - N/A   Unknown
10:15 PM 41.0 °F 34.3 °F 32.0 °F 70% 30.31 in 10.0 mi North 11.5 mph - N/A   Unknown
10:35 PM 41.0 °F 34.7 °F 32.0 °F 70% 30.30 in 10.0 mi North 10.4 mph - N/A   Unknown
10:55 PM 41.0 °F 34.3 °F 32.0 °F 70% 30.30 in 10.0 mi North 11.5 mph - N/A   Unknown
11:15 PM 41.0 °F 34.3 °F 32.0 °F 70% 30.30 in 10.0 mi North 11.5 mph - N/A   Unknown
11:35 PM 41.0 °F 35.8 °F 30.2 °F 65% 30.29 in 10.0 mi North 8.1 mph - N/A   Unknown
11:55 PM 39.2 °F 32.5 °F 30.2 °F 70% 30.29 in 10.0 mi NNE 10.4 mph - N/A   Unknown